User: anonymous   Login
Location: Unspecified
(0.0000°N, 0.0000°E)
Time: 03:54:02
(UTC+00:00)
Language:

COSMOS 2409 - Orbit

View from above orbital plane
View from above orbital plane
View from above satellite
View from above satellite

Ground track
Ground track

The orbit data is extracted from the following two-line orbital elements,

1 28380U 04028A   19083.02658630  .00000020  00000-0  47634-5 0  9997
2 28380  82.9590 230.9805 0040730  80.6936 279.8823 13.76062691736689
Epoch (UTC): 24 March 2019 00:38:17
Eccentricity: 0.0040730
inclination: 82.9590°
perigee height: 948 km
apogee height: 1008 km
right ascension of ascending node: 230.9805°
argument of perigee: 80.6936°
revolutions per day: 13.76062691
mean anomaly at epoch: 279.8823°
orbit number at epoch: 73668

The dashed part of the orbit path shows where the satellite is in the earth's shadow,  

DLR